[[{"header":{"parameterUnit":"m.s-1","parameterCategory":1,"la1":30.2991,"la2":30.254,"lo1":-89.0895,"lo2":-89.0444,"dy":0.0017,"dx":0.0017,"nx":28,"ny":28,"refTime":"2026-02-02T09:00:00:Z","depth":0,"parameterNumber":2,"parameterNumberName":"U-component_of_WINDS"},"data":[0,0,0,0,0,0,0,0,0,0,0,0,0,0,0,0,0,0,0,0,0,0,0,0,0,0,0,0,0,0,0,0,0,0,0,0,0,0,0,0,0,0,0,0,0,0,0,0,0,0,0,0,0,0,0,0,0,0,2.4303,2.4305,0,2.4506,2.4509,2.4511,2.4544,2.4542,2.454,2.4539,2.4747,2.4754,2.4761,0,0,0,0,0,0,0,0,0,0,0,0,0,2.3942,2.3948,2.4303,2.4305,2.4308,2.4506,2.4509,2.4511,2.4544,2.4542,2.454,2.4538,2.4744,2.4753,2.4761,0,0,0,0,0,0,0,0,0,0,0,0,0,2.4117,2.395,2.4302,2.4348,2.4354,2.4505,2.4509,2.4512,2.4545,2.4542,2.4539,2.4537,2.4742,2.4752,2.4763,2.4882,0,0,2.4796,2.48,0,0,0,0,0,0,0,0,2.4107,2.413,2.4339,2.4345,2.4352,2.4497,2.4458,2.4636,2.4545,2.4472,2.4539,2.4536,2.4666,2.4683,2.4727,2.4892,2.4901,2.4796,2.4803,2.4808,2.4811,0,0,0,0,0,0,0,2.4095,2.4122,2.4383,2.4342,2.435,2.4358,2.438,2.4492,2.4581,2.4479,2.4481,2.4505,2.4669,2.4716,2.4732,2.4904,2.4796,2.4806,2.4812,2.4817,2.5175,2.5178,0,0,0,0,0,0,2.4075,2.4111,2.4377,2.4389,2.4221,2.4367,2.4391,2.4453,2.458,2.4597,2.4507,2.4506,2.4699,2.4719,2.4739,2.4885,2.4808,2.4818,2.4824,2.5172,2.5176,2.5179,0,0,0,0,0,0,2.4067,2.4098,2.4369,2.4251,2.4286,2.4376,2.4445,2.4459,2.4506,2.4602,2.4618,2.4539,2.4698,2.4724,2.4846,2.4893,2.4823,2.4832,2.5169,2.5173,2.5178,2.518,0,0,0,0,0,0,2.4056,2.4095,2.4142,2.4252,2.4292,2.4472,2.4448,2.4465,2.4524,2.4525,2.4636,2.4652,2.4698,2.483,2.4856,2.4907,2.4841,2.5165,2.5171,2.5176,2.5176,2.5184,2.5191,0,0,0,0,0,2.4043,2.4135,2.4144,2.4176,2.4353,2.4475,2.4498,2.4549,2.4528,2.4575,2.4637,2.4648,2.4884,2.4842,2.4872,2.4927,2.5162,2.5169,2.5176,2.5173,2.5183,2.5191,0,0,0,0,0,0,2.4028,2.415,2.4161,2.4292,2.4372,2.448,2.4541,2.4558,2.4647,2.4643,2.4703,2.4727,2.4846,2.4899,2.485,2.5048,2.5021,2.5035,2.5008,2.5019,2.5026,2.501,2.485,0,0,0,0,0,2.4039,2.4129,2.4231,2.4336,2.4376,2.4451,2.4507,2.4539,2.4625,2.4659,2.473,2.4813,2.4906,2.4966,2.5056,2.5185,2.5208,2.5237,2.5244,2.525,2.526,2.533,2.5343,2.5202,2.5202,2.5202,0,0,2.4064,2.4142,2.4195,2.4334,2.4401,2.4491,2.448,2.4577,2.4644,2.4674,2.4793,2.4848,2.4944,2.5069,2.5128,2.5117,2.5304,2.5259,2.5262,2.527,2.5338,2.5351,2.5363,2.5207,2.5206,2.5205,0,0,2.4155,2.4224,2.4318,2.4385,2.4485,2.4535,2.4557,2.4663,2.47,2.482,2.4844,2.4925,2.5084,2.5152,2.5206,2.5322,2.5335,2.535,2.5388,2.5455,2.5466,2.5476,2.5515,2.5529,2.536,2.536,2.536,0,2.4173,2.4311,2.4364,2.4459,2.4519,2.455,2.4645,2.4707,2.4832,2.4873,2.4859,2.5058,2.5126,2.5265,2.5293,2.5338,2.5364,2.5337,2.5461,2.5471,2.5481,2.5519,2.5534,2.5361,2.5361,2.5361,2.5361,0,2.4327,2.4422,2.4485,2.4604,2.4672,2.4766,2.4833,2.4895,2.4921,2.4972,2.5093,2.5175,2.5282,2.5318,2.5345,2.5461,2.5451,2.5449,2.5423,2.5495,2.5531,2.5546,2.5363,2.5362,2.5362,2.5362,0,0,2.4413,2.456,2.4582,2.4636,2.4749,2.4823,2.4919,2.5023,2.5073,2.5159,2.5239,2.5373,2.537,2.5433,2.5468,2.5527,2.561,2.5517,2.552,2.5529,2.5741,2.574,2.5756,2.562,2.5623,2.5626,2.5732,0,2.4515,2.4686,2.4736,2.488,2.4967,2.4998,2.5081,2.5159,2.5209,2.529,2.5345,2.5438,2.5429,2.5466,2.5526,2.5587,2.5653,2.558,2.5694,2.5697,2.5666,2.5776,2.5776,2.5872,2.5746,2.5749,2.5751,0,2.4658,2.4745,2.4896,2.4997,2.5035,2.5109,2.5207,2.5285,2.5374,2.5406,2.5475,2.5504,2.5604,2.5574,2.5711,2.566,2.571,2.5747,2.5752,2.5763,2.5727,2.5787,2.5904,2.5918,2.5774,2.5772,2.5771,0,2.4702,2.4858,2.4968,2.5013,2.5134,2.5184,2.5237,2.5323,2.5382,2.5469,2.5507,2.5604,2.5657,2.5731,2.5785,2.5759,2.5917,2.5892,2.5945,2.5944,2.5976,2.5972,2.61,2.6011,2.6011,2.6011,2.601,0,2.481,2.4901,2.4989,2.5056,2.5159,2.5216,2.5316,2.537,2.5446,2.5524,2.5558,2.563,2.5699,2.578,2.5824,2.5929,2.5953,2.5981,2.5991,2.5977,2.5973,2.6009,2.6002,2.6015,2.6014,2.6013,2.6012,0,2.4876,2.4939,2.5061,2.5165,2.5193,2.5264,2.5352,2.5419,2.547,2.5568,2.5594,2.5675,2.5772,2.5834,2.5959,2.5988,2.6103,2.6112,2.6072,2.6077,2.6125,2.6119,2.6278,2.6301,2.6199,2.62,2.6201,0,2.4939,2.501,2.5121,2.5176,2.5228,2.5316,2.5376,2.5435,2.5496,2.5601,2.5655,2.5754,2.5837,2.5991,2.606,2.6154,2.6165,2.6214,2.6179,2.6162,2.6163,2.6157,2.6163,2.6219,2.622,2.622,2.6221,0,2.5045,2.5072,2.5157,2.5253,2.5324,2.5402,2.5481,2.5523,2.5595,2.5662,2.5762,2.5826,2.5952,2.605,2.615,2.6204,2.6224,2.6232,2.6249,2.6234,2.6207,2.6219,2.6085,2.6227,2.6227,2.6226,2.6226,2.6226,2.511,2.5173,2.5261,2.5354,2.5419,2.5491,2.5558,2.5618,2.5702,2.5809,2.5839,2.5942,2.6028,2.6165,2.6221,2.6302,2.6296,2.6321,2.6327,2.6331,2.633,2.6195,2.6321,2.6321,2.6321,2.6321,2.6321,0,2.5215,2.5272,2.5358,2.5466,2.5539,2.5552,2.5639,2.5699,2.579,2.5868,2.5949,2.6062,2.6157,2.6233,2.633,2.6381,2.6392,2.6404,2.64,2.6411,2.6332,2.6306,2.6393,2.6393,2.6393,2.6393,2.6393,2.6393,2.5277,2.5384,2.5422,2.5561,2.5619,2.572,2.5768,2.5834,2.5897,2.6022,2.6101,2.615,2.6228,2.633,2.6417,2.6437,2.6471,2.648,2.6502,2.6425,2.6417,2.6409,2.6386,2.6488,2.6488,2.6574,2.6575,2.6576]},{"header":{"parameterUnit":"m.s-1","parameterCategory":1,"la1":30.2991,"la2":30.254,"lo1":-89.0895,"lo2":-89.0444,"dy":0.0017,"dx":0.0017,"nx":28,"ny":28,"refTime":"2026-02-02T09:00:00:Z","depth":0,"parameterNumber":3,"parameterNumberName":"V-component_of_WINDS"},"data":[0,0,0,0,0,0,0,0,0,0,0,0,0,0,0,0,0,0,0,0,0,0,0,0,0,0,0,0,0,0,0,0,0,0,0,0,0,0,0,0,0,0,0,0,0,0,0,0,0,0,0,0,0,0,0,0,0,0,3.0066,3.0067,0,3.0219,3.0221,3.0222,3.0223,3.0221,3.0219,3.0217,3.037,3.0376,3.0382,0,0,0,0,0,0,0,0,0,0,0,0,0,2.977,2.9775,3.0066,3.0068,3.0069,3.0219,3.0221,3.0223,3.0223,3.022,3.0218,3.0216,3.0368,3.0375,3.0382,0,0,0,0,0,0,0,0,0,0,0,0,0,2.9908,2.9777,3.0065,3.0088,3.0091,3.0218,3.0221,3.0223,3.0223,3.022,3.0217,3.0215,3.0366,3.0375,3.0383,3.0497,0,0,3.0411,3.0414,0,0,0,0,0,0,0,0,2.99,2.9919,3.0082,3.0086,3.009,3.0199,3.0173,3.0315,3.0224,3.0173,3.0217,3.0213,3.0315,3.0328,3.0363,3.0505,3.0511,3.0411,3.0417,3.0421,3.0423,0,0,0,0,0,0,0,2.989,2.9912,3.0126,3.0085,3.009,3.0089,3.0105,3.02,3.0259,3.0177,3.0178,3.0196,3.0317,3.0355,3.0367,3.0514,3.0411,3.0419,3.0424,3.0428,3.0755,3.0758,0,0,0,0,0,0,2.9877,2.9904,3.0121,3.0131,2.9986,3.0096,3.0115,3.0167,3.0258,3.0269,3.0198,3.0195,3.0341,3.0357,3.0372,3.0512,3.042,3.0429,3.0434,3.0752,3.0756,3.076,0,0,0,0,0,0,2.987,2.9896,3.0115,3.0018,3.0045,3.0105,3.0163,3.0171,3.0209,3.0274,3.0284,3.0226,3.0339,3.036,3.0466,3.0517,3.0433,3.0441,3.0748,3.0753,3.0758,3.0791,0,0,0,0,0,0,2.9862,2.9894,2.9939,3.0019,3.0051,3.0208,3.0166,3.0177,3.0225,3.0223,3.0303,3.0313,3.0339,3.0453,3.0475,3.0528,3.0448,3.0744,3.075,3.0756,3.0786,3.0797,3.0806,0,0,0,0,0,2.9851,2.9942,2.9941,2.9967,3.0108,3.0211,3.0229,3.0257,3.0229,3.0274,3.0315,3.0311,3.0508,3.0464,3.0489,3.0545,3.0741,3.0748,3.0756,3.0781,3.0795,3.0806,0,0,0,0,0,0,2.9865,2.9952,2.9953,3.0072,3.0134,3.0211,3.0268,3.0271,3.0341,3.0336,3.0367,3.0385,3.0491,3.0529,3.0478,3.0659,3.062,3.0633,3.0631,3.0645,3.0655,3.0643,3.0455,0,0,0,0,0,2.9882,2.9959,3.0031,3.0129,3.016,3.0209,3.0255,3.0271,3.0336,3.0362,3.0411,3.0474,3.055,3.0599,3.0673,3.0791,3.0808,3.0842,3.0852,3.086,3.087,3.0935,3.0951,3.0784,3.0784,3.0784,0,0,2.9918,2.9975,3.0022,3.0133,3.0183,3.0261,3.0231,3.0315,3.0373,3.0375,3.0479,3.0517,3.0588,3.0701,3.0753,3.0736,3.092,3.0869,3.0875,3.0882,3.0944,3.096,3.0974,3.0789,3.0789,3.0788,0,0,3.0023,3.0074,3.0161,3.0212,3.0289,3.0321,3.0341,3.0418,3.0444,3.0549,3.0552,3.062,3.075,3.0801,3.0844,3.0968,3.0966,3.099,3.1043,3.1106,3.1119,3.1131,3.1175,3.119,3.1001,3.1001,3.1001,0,3.0057,3.0176,3.0205,3.029,3.0339,3.0345,3.0432,3.048,3.0576,3.0609,3.0588,3.0751,3.08,3.0924,3.0955,3.0989,3.1013,3.0982,3.1115,3.1127,3.1139,3.1181,3.1197,3.1004,3.1003,3.1003,3.1003,0,3.0214,3.0297,3.0358,3.0452,3.0507,3.0592,3.0634,3.0686,3.0697,3.0731,3.0837,3.0895,3.0981,3.1011,3.1023,3.1137,3.1124,3.1109,3.107,3.1156,3.1196,3.1213,3.1007,3.1006,3.1006,3.1005,0,0,3.0333,3.0442,3.0464,3.0506,3.0591,3.0654,3.0739,3.0824,3.0868,3.0934,3.1005,3.1115,3.1102,3.115,3.1167,3.1222,3.1316,3.12,3.1202,3.122,3.1445,3.1456,3.1474,3.1315,3.1318,3.1321,3.1439,0,3.0447,3.06,3.0628,3.0761,3.0837,3.0844,3.0918,3.0977,3.101,3.1079,3.1115,3.1192,3.1169,3.1198,3.1253,3.1293,3.1361,3.1285,3.1381,3.1384,3.1363,3.1495,3.1508,3.1616,3.1455,3.1457,3.1459,0,3.06,3.0671,3.0812,3.0886,3.0919,3.0985,3.1065,3.113,3.1197,3.1217,3.1271,3.1282,3.137,3.1327,3.1447,3.1394,3.1435,3.1461,3.1465,3.1476,3.1427,3.1509,3.1652,3.1668,3.1484,3.1482,3.148,0,3.0672,3.0802,3.0904,3.094,3.1029,3.1075,3.1114,3.1178,3.1227,3.1296,3.1327,3.1405,3.1447,3.1506,3.1537,3.1503,3.1655,3.1615,3.1674,3.1673,3.1706,3.1703,3.1857,3.1732,3.1732,3.1731,3.1731,0,3.0797,3.0882,3.0937,3.0999,3.1095,3.1127,3.122,3.1258,3.1315,3.1384,3.1393,3.1457,3.1494,3.1563,3.1587,3.1683,3.1702,3.172,3.1725,3.172,3.1717,3.1747,3.174,3.1736,3.1735,3.1734,3.1733,0,3.0893,3.0934,3.1044,3.112,3.114,3.1208,3.1272,3.1332,3.1365,3.1451,3.1473,3.1525,3.1607,3.1643,3.1743,3.176,3.1869,3.1869,3.1847,3.1849,3.1905,3.1899,3.2084,3.2109,3.1967,3.1968,3.1969,0,3.097,3.1037,3.1119,3.1167,3.1207,3.1283,3.1333,3.1366,3.1417,3.1498,3.1548,3.163,3.1697,3.1827,3.1873,3.1949,3.1951,3.201,3.1963,3.1954,3.1952,3.1948,3.1954,3.2019,3.202,3.2022,3.2023,0,3.1102,3.1119,3.1191,3.1271,3.133,3.1394,3.1456,3.1494,3.1536,3.1593,3.1678,3.173,3.1833,3.1914,3.1993,3.2032,3.2034,3.2037,3.2055,3.2049,3.2034,3.2043,3.1871,3.2033,3.2032,3.2031,3.2031,3.203,3.1191,3.1251,3.1318,3.1398,3.1449,3.1507,3.1567,3.1608,3.1679,3.1766,3.178,3.187,3.1934,3.2041,3.2082,3.2152,3.2137,3.2163,3.2169,3.2175,3.2179,3.2023,3.2166,3.2166,3.2166,3.2165,3.2165,0,3.1324,3.1367,3.1441,3.1528,3.1591,3.1589,3.1657,3.171,3.1789,3.1849,3.1915,3.2012,3.209,3.2142,3.2221,3.2266,3.2269,3.2286,3.2283,3.2292,3.2187,3.2164,3.2282,3.2282,3.2282,3.2282,3.2282,3.2282,3.14,3.15,3.1524,3.1649,3.1692,3.1781,3.182,3.1873,3.1921,3.2029,3.2095,3.2128,3.2185,3.2268,3.2339,3.2352,3.2381,3.2398,3.241,3.2311,3.2299,3.2288,3.2266,3.2404,3.2404,3.2509,3.251,3.2511]}]]